WetterOnline ( https://www.wetteronline.de )

Wetter aktuell Ludwigsburg

Aktuelles Wetter: Schnarrenberg/Stuttgart (315m)

6-stündlich | Neueste Meldungen
Ortszeit Temperatur Wetter
Do, 29.09. 2:00 7.2° C bewölkt
Mi, 28.09. 20:00 10.4° C wolkig
Mi, 28.09. 14:00 12.0° C bedeckt
Mi, 28.09. 8:00 8.3° C leichter Regen
Mi, 28.09. 2:00 7.9° C bedeckt
Di, 27.09. 20:00 9.4° C leichter Regen
Di, 27.09. 14:00 11.5° C bedeckt
Di, 27.09. 8:00 9.0° C bedeckt
Ortszeit Temperatur Wetter
Do, 29.09. 7:30 6.4° C bedeckt
Do, 29.09. 7:20 6.4° C bedeckt
Do, 29.09. 7:10 6.2° C bedeckt
Do, 29.09. 7:00 6.6° C bedeckt
Do, 29.09. 6:50 6.6° C bedeckt
Do, 29.09. 6:40 6.5° C bedeckt
Do, 29.09. 6:30 7.0° C bedeckt
Do, 29.09. 6:00 7.4° C bewölkt
Do, 29.09. 5:30 7.5° C leichter Regen
Do, 29.09. 5:00 7.6° C bedeckt
Do, 29.09. 4:30 7.5° C bedeckt
Ortszeit Relative Feuchte Sichtweite
Do, 29.09. 2:00 91% 45 km
Mi, 28.09. 20:00 69% >70 km
Mi, 28.09. 14:00 65% 60 km
Mi, 28.09. 8:00 95% 27 km
Mi, 28.09. 2:00 92% 65 km
Di, 27.09. 20:00 75% 65 km
Di, 27.09. 14:00 65% >70 km
Di, 27.09. 8:00 88% 65 km
Ortszeit Relative Feuchte Sichtweite
Do, 29.09. 7:30 96% 21 km
Do, 29.09. 7:20 96% -
Do, 29.09. 7:10 98% -
Do, 29.09. 7:00 96% 28 km
Do, 29.09. 6:50 96% -
Do, 29.09. 6:40 96% -
Do, 29.09. 6:30 91% 30 km
Do, 29.09. 6:00 91% 35 km
Do, 29.09. 5:30 91% 40 km
Do, 29.09. 5:00 90% 40 km
Do, 29.09. 4:30 90% 35 km
Ortszeit Niederschlagsmenge Niederschlagsart
Do, 29.09. 2:00 0.0 l/m2 in 6 Std. -
Mi, 28.09. 20:00 0.8 l/m2 in 12 Std. -
Mi, 28.09. 14:00 0.8 l/m2 in 6 Std. Regen
Mi, 28.09. 8:00 6 l/m2 in 12 Std. Regen
Mi, 28.09. 2:00 1 l/m2 in 6 Std. Regen
Di, 27.09. 20:00 5 l/m2 in 12 Std. Regen
Di, 27.09. 14:00 1 l/m2 in 6 Std. Regen
Di, 27.09. 8:00 4 l/m2 in 12 Std. Regen
Ortszeit Niederschlagsmenge Niederschlagsart
Do, 29.09. 7:30 0.0 l/m2 in 1 Std. -
Do, 29.09. 7:20 keine Meldung -
Do, 29.09. 7:10 keine Meldung -
Do, 29.09. 7:00 0.0 l/m2 in 1 Std. -
Do, 29.09. 6:50 keine Meldung -
Do, 29.09. 6:40 keine Meldung -
Do, 29.09. 6:30 0.0 l/m2 in 1 Std. -
Do, 29.09. 6:00 <0.05 l/m2 in 1 Std. Regen
Do, 29.09. 5:30 <0.05 l/m2 in 1 Std. -
Do, 29.09. 5:00 0.0 l/m2 in 1 Std. -
Do, 29.09. 4:30 0.0 l/m2 in 1 Std. -
Ortszeit Stärke Spitze Richtung
km/h Bft. km/h Grad Sektor
Do, 29.09. 2:00 11 2 22 160° S
Mi, 28.09. 20:00 7 2 32 240° SW
Mi, 28.09. 14:00 17 3 33 280° W
Mi, 28.09. 8:00 6 1 33 290° W
Mi, 28.09. 2:00 13 3 28 170° S
Di, 27.09. 20:00 9 2 48 250° W
Di, 27.09. 14:00 14 3 47 220° SW
Di, 27.09. 8:00 13 3 37 260° W
Ortszeit Stärke Spitze Richtung
km/h Bft. km/h Grad Sektor
Do, 29.09. 7:30 7 2 11 140° SO
Do, 29.09. 7:20 7 2 - 140° SO
Do, 29.09. 7:10 6 1 - 140° SO
Do, 29.09. 7:00 6 1 9 70° O
Do, 29.09. 6:50 6 1 - 70° O
Do, 29.09. 6:40 4 1 - 30° NO
Do, 29.09. 6:30 6 1 6 140° SO
Do, 29.09. 6:00 4 1 11 140° SO
Do, 29.09. 5:30 6 1 11 150° SO
Do, 29.09. 5:00 7 2 11 160° S
Do, 29.09. 4:30 9 2 11 160° S
Ortszeit Untergrenze Bedeckung Gattung
total tief tief mittel hoch
Do, 29.09. 2:00 2700 m 8/8 6/8 - - -
Mi, 28.09. 20:00 1800 m 8/8 2/8 - - -
Mi, 28.09. 14:00 6300 m 8/8 8/8 - - -
Mi, 28.09. 8:00 660 m 8/8 8/8 - - -
Mi, 28.09. 2:00 1140 m 8/8 8/8 - - -
Di, 27.09. 20:00 1200 m 8/8 7/8 - - -
Di, 27.09. 14:00 930 m 8/8 8/8 - - -
Di, 27.09. 8:00 570 m 8/8 8/8 - - -
Ortszeit Bedeckungsgrad in Achtel und Wolkenuntergrenze
Do, 29.09. 7:30 8(5400m) 8(6300m)
Do, 29.09. 7:20 8(5400m) 8(6300m)
Do, 29.09. 7:10 8
Do, 29.09. 7:00 8(5400m) 8(6900m)
Do, 29.09. 6:50 8(5400m) 8(6900m)
Do, 29.09. 6:40 8
Do, 29.09. 6:30 8(5100m)
Do, 29.09. 6:00 2(1500m) 4(2400m) 8(5400m)
Do, 29.09. 5:30 2(1260m) 8(1800m) 8(2400m)
Do, 29.09. 5:00 7(1260m) 7(1440m) 8(2100m)
Do, 29.09. 4:30 6(2100m) 8(2400m)
Ortszeit Luftdruck NN (hPa) Tendenz (hPa in 3 Std.)
Do, 29.09. 2:00 1003 - 0,1
Mi, 28.09. 20:00 1001 + 0,8
Mi, 28.09. 14:00 1000 + 0,5
Mi, 28.09. 8:00 998 + 0,2
Mi, 28.09. 2:00 1001 - 2,3
Di, 27.09. 20:00 1003 + 0,5
Di, 27.09. 14:00 1002 - 0,5
Di, 27.09. 8:00 1001 + 1,7
Ortszeit Luftdruck NN (hPa) Tendenz (hPa in 3 Std.)
Do, 29.09. 7:30 1002 0,0
Do, 29.09. 7:20 1002 keine Meldung
Do, 29.09. 7:10 1002 keine Meldung
Do, 29.09. 7:00 1002 - 0,2
Do, 29.09. 6:50 1002 keine Meldung
Do, 29.09. 6:40 1002 keine Meldung
Do, 29.09. 6:30 1002 - 0,2
Do, 29.09. 6:00 1002 - 0,4
Do, 29.09. 5:30 1002 - 0,4
Do, 29.09. 5:00 1002 - 0,1
Do, 29.09. 4:30 1002 - 0,2
Ortszeit Schneehöhe (cm)
Do, 29.09. 2:00 0
Mi, 28.09. 20:00 0
Mi, 28.09. 14:00 0
Mi, 28.09. 8:00 0
Mi, 28.09. 2:00 0
Di, 27.09. 20:00 0
Di, 27.09. 14:00 0
Di, 27.09. 8:00 0
Ortszeit Schneehöhe (cm)
Do, 29.09. 7:30 0
Do, 29.09. 7:20 0
Do, 29.09. 7:10 0
Do, 29.09. 7:00 0
Do, 29.09. 6:50 0
Do, 29.09. 6:40 0
Do, 29.09. 6:30 0
Do, 29.09. 6:00 0
Do, 29.09. 5:30 0
Do, 29.09. 5:00 0
Do, 29.09. 4:30 0
Link zu dieser Seite / Seite empfehlen

Das Wetter in ...